Home > Weather > Lansing > Past weeks

Flag for USA Past Weather in Lansing, Michigan, USA — Yesterday and Last 2 Weeks

Now
67 °F

Sunny.


Feels Like: 67 °F
Forecast: 68 / 85 °F
Wind: No wind

Location: Capital City Airport

Current Time: Jul 28, 2016 at 8:29:00 AM

Latest Report: Jul 28, 2016 at 7:53 AM


Visibility: 10 mi

Pressure: 29.96 "Hg

Humidity: 87%

Dew Point: 63 °F

Location of LansingLocation

Past Weather in Lansing — Graph

°F

Lansing Temperature Yesterday

Maximum temperature yesterday: 88 °F (at 3:53 PM)
Minimum temperature yesterday: 64 °F (at 5:53 AM)
Average temperature yesterday: 75 °F

High & Low Weather Summary for the Past Weeks

 TemperatureHumidityPressure
High92 °F (Jul 23, 3:53 PM)93% (Jul 24, 9:57 AM)30.25 "Hg (Jul 24, 9:57 AM)
Low54 °F (Jul 17, 5:53 AM)33% (Jul 20, 4:53 PM)29.76 "Hg (Jul 14, 12:53 AM)
Average75 °F66%30.00 "Hg
* Reported Jul 13 6:53 AM — Jul 28 6:53 AM, Lansing, Weather by CustomWeather, © 2016

Note: Actual official high and low records may vary slightly from our data, if they occured in-between our weather recording intervals... More about our weather records

Advertising

Lansing Weather History for the Previous 24 Hours

Scroll right to see more
 ConditionsComfort  
Time TempWeatherWind HumidityBarometerVisibility
6:53 AM
Thu, Jul 28
63 °FClear.3 mph90%29.94 "Hg10 mi
5:53 AM65 °FClear.No wind87%29.92 "Hg10 mi
4:53 AM65 °FClear.3 mph87%29.91 "Hg10 mi
3:53 AM66 °FClear.No wind84%29.91 "Hg10 mi
2:53 AM66 °FClear.No wind87%29.93 "Hg10 mi
1:53 AM67 °FClear.No wind85%29.94 "Hg10 mi
12:53 AM67 °FClear.No wind85%29.95 "Hg10 mi
11:53 PM
Wed, Jul 27
69 °FClear.No wind84%29.96 "Hg10 mi
10:53 PM71 °FClear.No wind78%29.95 "Hg10 mi
9:53 PM71 °FScattered clouds.3 mph76%29.95 "Hg10 mi
8:53 PM73 °FPassing clouds.No wind71%29.95 "Hg10 mi
7:53 PM75 °FSunny.3 mph64%29.95 "Hg10 mi
6:53 PM77 °FSunny.10 mph60%29.96 "Hg10 mi
5:53 PM76 °FPartly sunny.17 mph60%29.97 "Hg10 mi
4:53 PM87 °FPassing clouds.10 mph46%29.94 "Hg10 mi
3:53 PM88 °FPassing clouds.12 mph45%29.95 "Hg10 mi
2:53 PM87 °FSunny.10 mph46%29.96 "Hg10 mi
1:53 PM86 °FSunny.7 mph46%29.99 "Hg10 mi
12:53 PM85 °FSunny.8 mph45%29.99 "Hg10 mi
11:53 AM83 °FSunny.9 mph44%29.99 "Hg10 mi
10:53 AM82 °FPassing clouds.7 mph46%30.00 "Hg10 mi
9:53 AM79 °FPartly sunny.7 mph54%30.01 "Hg10 mi
8:53 AM74 °FScattered clouds.6 mph62%30.02 "Hg10 mi
Weather by CustomWeather, © 2016

See weather overviewHow to use our weather pages